Location: Newark
(31.7692°N, 106.4397°W)
Time: 19:09:53
(UTC+00:00)

N. Korean satellite - Visible Passes

Search period start: 14 December 2019 00:00
Search period end: 24 December 2019 00:00
Orbit: 455 x 507 km, 97.2° (Epoch: 13 December)

Date Brightness Start Highest point End Pass type
(mag) Time Alt. Az. Time Alt. Az. Time Alt. Az.
14 Dec 10.1 01:19:39 10° WSW 01:21:12 12° W 01:22:45 10° WNW visible
14 Dec 6.6 12:48:39 10° NNE 12:52:07 78° E 12:55:32 10° S visible
15 Dec 9.1 00:52:30 10° SSW 00:55:39 26° W 00:58:49 10° NW visible
15 Dec 8.5 12:23:34 10° NE 12:26:39 30° E 12:29:41 10° SSE visible
16 Dec 7.2 00:26:32 10° S 00:30:12 63° W 00:33:50 10° NNW visible
16 Dec 9.8 11:59:23 10° ENE 12:01:05 13° E 12:02:48 10° SE visible
16 Dec 7.6 13:31:41 10° NNW 13:34:26 22° WNW 13:37:10 10° SW visible
17 Dec 6.5 13:05:44 10° N 13:09:07 54° WNW 13:12:27 10° SSW visible
18 Dec 9.8 01:10:31 10° SW 01:12:47 16° W 01:15:03 10° WNW visible
18 Dec 7.1 12:40:19 10° NNE 12:43:42 56° E 12:47:03 10° S visible
19 Dec 8.6 00:43:53 10° SSW 00:47:16 34° W 00:50:38 10° NNW visible
19 Dec 9.0 12:15:25 10° NE 12:18:12 23° E 12:20:57 10° SSE visible
20 Dec 7.3 13:23:03 10° NNW 13:26:04 29° WNW 13:29:03 10° SW visible
21 Dec 6.3 12:57:17 10° N 13:00:42 74° WNW 13:04:05 10° SSW visible
22 Dec 9.6 01:01:37 10° SW 01:04:21 20° W 01:07:04 10° NW visible
22 Dec 7.8 12:32:00 10° NNE 12:35:15 41° E 12:38:30 10° S visible
23 Dec 8.0 00:35:21 10° S 00:38:51 45° W 00:42:21 10° NNW visible
23 Dec 9.4 12:07:21 10° NE 12:09:44 18° E 12:12:05 10° SE visible
